www.pogodaiklimat.ru

Погода и климат >> Архив погоды >> Мексика >> Hermosillo la Magna


ПОГОДА в Hermosillo la Magna

  • Прогноз погоды в Hermosillo la Magna
  • Монитор погоды в Hermosillo la Magna
  • Климат города

АРХИВ ПОГОДЫ в Hermosillo la Magna

Время (UTC), дата Ветер
(напр.,м/с)
 
Видим.   Явления Облачность Т
(С)
Тd
(С)
f
(%)
Тe
(С)
Тes
(С)
Комфортность P
(гПа)
Po
(гПа)
Тmin
(С)
Tmax
(С)
R
(мм)
R24
(мм)
S
(см)
00 20.05 ЮЗ 5 н/о н/о +36.3 1006.8 983.3
03 20.05 З 4 н/о н/о +27.6 -0.5 16 +25 +25 комфорт 1007.8 983.8
06 20.05 З 2 н/о н/о +23.9 +3.2 26 +23 +23 комфорт 1009.5 985.1 +13.1 +36.3
09 20.05 СВ 2 н/о н/о +19.2 +1.6 31 +20 +20 1009.1 984.3
12 20.05 СВ 3 н/о н/о +19.1 -1.4 25 +19 +19 1010.2 985.4 +15.1 +36.3
15 20.05 В 2 н/о н/о +23.7 -0.5 20 +22 +22 комфорт 1011.2 986.7
18 20.05 ЮЗ 2 н/о н/о +33.0 -0.7 12 +30 +30 жарко 1010.2 986.5 +13.9 +33.3
21 20.05 ЮЗ 4 н/о н/о +36.0 +0.9 11 +32 +32 жарко 1007.9 984.8
00 21.05 ЮЗ 5 н/о н/о +34.3 +3.1 14 +31 +31 жарко 1006.7 983.2 +13.9 +37.3
03 21.05 З 3 н/о н/о +28.3 +8.0 28 +28 +28 жарко 1007.9 984.2
06 21.05 СЗ 1 н/о н/о +22.9 +9.4 42 +24 +24 комфорт 1009.3 984.8 +13.9 +37.3
09 21.05 СВ 2 н/о н/о +19.9 +6.2 41 +21 +21 комфорт 1008.4 984.0
12 21.05 В 1 н/о н/о +20.3 +4.6 36 +22 +22 комфорт 1008.9 984.2 +16.1 +37.3
15 21.05 В 1 н/о н/о +24.8 +5.9 30 +25 +25 комфорт 1009.5 985.5
18 21.05 ЮВ 3 н/о н/о +34.3 +2.6 14 +31 +31 жарко 1008.3 985.0 +14.4 +34.5
21 21.05 ЮЗ 3 н/о н/о +36.3 +3.1 13 +33 +33 жарко 1006.2 982.9
00 22.05 З 5 н/о н/о +33.5 +6.0 18 +31 +31 жарко 1005.7 982.1 +14.4 +37.3
06 22.05 ЮЗ 1 н/о н/о +23.7 +9.7 41 +25 +25 комфорт 1008.7 984.6 +14.4 +37.3
09 22.05 СВ 1 н/о н/о +19.4 +8.0 48 +21 +21 комфорт 1008.7 984.3
12 22.05 В 1 н/о н/о +4.5 -2 -2 1010.0 985.3 +16.5 +37.3
18 22.05 Ю 2 н/о н/о +32.1 +8.7 23 +31 +31 жарко 1010.1 986.3 +15.2 +32.4
21 22.05 З 2 н/о н/о +35.6 +6.9 17 +33 +33 жарко 1007.8 984.6
00 23.05 З 5 н/о н/о +32.4 +9.6 25 1006.9 984.2 +15.2 +36.0
03 23.05 З 3 н/о н/о +27.8 +6.5 26 +27 +27 жарко 1008.6 984.8
06 23.05 СЗ 1 н/о н/о +23.1 +6.5 34 +24 +24 комфорт 1010.3 986.1 +15.2 +36.0
12 23.05 В 1 н/о н/о +4.8 -2 -2 1010.7 986.1 +17.5 +36.0
15 23.05 СВ 1 н/о н/о +24.9 +5.2 28 +24 +24 комфорт 1011.8 987.7
18 23.05 ЮЗ 2 н/о н/о +32.4 +5.8 19 +30 +30 жарко 1011.3 987.5 +15.5 +32.5
21 23.05 ЮЗ 3 н/о н/о +36.0 +4.1 14 +33 +33 жарко 1009.4 986.2
00 24.05 З 5 н/о н/о +35.1 +5.4 16 1009.0 986.5 +15.5 +37.0
03 24.05 З 3 н/о н/о +28.9 +2.8 19 +27 +27 жарко 1011.3 987.6
06 24.05 З 1 н/о н/о +23.4 +4.7 30 +23 +23 комфорт 1013.5 988.9 +15.5 +37.0
09 24.05 штиль 0 н/о н/о +19.7 +6.4 42 +20 +20 1013.1 988.6
15 24.05 СВ 3 н/о н/о +26.5 +2.3 21 +25 +25 комфорт 1014.2 990.2
21 24.05 З 3 н/о н/о +37.9 -0.5 9 +34 +34 очень
жарко
1012.6 989.3
00 25.05 З 3 н/о н/о +38.0 -1.4 8 1010.5 5.0 +15.4 +39.1
03 25.05 З 3 н/о н/о +31.1 -2.4 11 +28 +28 жарко 1011.9 333.0
06 25.05 З 2 н/о н/о +27.2 +2.0 20 +26 +26 жарко 1013.4 989.5 +15.4 +39.1
09 25.05 штиль 0 н/о н/о +22.4 +7.1 37 +23 +23 комфорт 1013.3 989.0
12 25.05 В 2 н/о н/о +22.5 -0.2 22 +22 +22 комфорт 1013.3 988.7 +18.6 +39.1
15 25.05 СВ 3 н/о н/о +27.6 -0.9 15 +25 +25 комфорт 1013.2 989.3
18 25.05 ЮЗ 2 н/о н/о +38.0 -1.7 8 +34 +34 очень
жарко
1011.7 988.6 +17.9 +38.5
21 25.05 З 3 н/о н/о +41.3 +1.2 8 +38 +38 очень
жарко
1009.3 986.5
00 26.05 З 3 н/о н/о +40.8 +1.5 9 1007.4 985.1 +17.9 +42.8
03 26.05 З 4 н/о н/о +34.7 +4.1 15 +32 +32 жарко 1008.0 984.8
06 26.05 З 1 н/о н/о +29.3 +2.9 18 +27 +27 жарко 1009.4 985.7 +17.9 +42.8
12 26.05 СВ 1 н/о н/о +3.5 -2 -2 1008.3 984.2 +23.2 +42.8
15 26.05 З 3 н/о н/о +29.7 +3.2 18 +28 +28 жарко 1008.9 985.3
18 26.05 З 3 н/о н/о +36.3 -2.9 8 +32 +32 жарко 1008.7 985.3 +21.8 +36.3
21 26.05 З 4 н/о н/о +38.3 +0.2 9 +35 +35 очень
жарко
1007.0 984.1

 

Местоположение метеостанции Hermosillo la Magna (Мексика): широта 29.08 долгота -110.95 высота над уровнем моря 210 м.

В архиве по умолчанию представлена погода в Hermosillo la Magna за последнюю неделю. Архивные данные за месяц целиком и за предыдущие месяцы, начиная с января 2011 года, Вы можете получить, выбрав интересующий диапазон дат из раскрывающегося списка и нажав кнопку "Ввод!".


*Определитесь, кто Вы:
робот инопланетянин человек

Внимание! Время в таблицах - всемирное. Для получения местного времени необходимо прибавить поправку, которая в Hermosillo la Magna равна -7 ч.

Смотрите также архив погоды в соседних городах и на ближайших метеорологических станциях:

Погода в Hermosillo (Мексика) (10 км)
Погода в Empalme (Мексика) (128 км)
Погода в Guaymas (Мексика) (129 км)
Погода в Pilares de Nacoz (Мексика) (189 км)
Погода в Altar Son (Мексика) (201 км)
Погода в Ciudad Obregon (Мексика) (218 км)
Погода в Santa Rosalia (Мексика) (237 км)
Погода в Temosachic (Мексика) (307 км)
Погода в Nueva Casas Grandes (Мексика) (328 км)
Погода в Loreto (Мексика) (342 км)

Пояснения к столбцам:

Ветер - указаны скорость ветра в м/с - средняя за 10 мин, порывы в срок и между сроками (в фигурных скобках) и направление, откуда дует ветер: С - северный, СВ - северо-восточный, В - восточный, ЮВ - юго-восточный, Ю - южный, ЮЗ - юго-западный, З - западный, СЗ - северо-западный.
Видимость - горизонтальная дальность видимости в метрах или километрах. При видимости от 1 до 10 км при отсутствии осадков обычно наблюдается дымка, при ухудшении видимости до 1 км и менее - туман. В сухую погоду видимость может ухудшаться дымом, пылью или мглою.
Явления - указаны атмосферные явления, наблюдавшиеся в срок или в последний час перед сроком; фигурными скобками обозначены явления, наблюдавшиеся между сроками (за 1-3 часа до срока); квадратными скобками обозначены град или гололедные отложения с указанием их диаметра в мм.
Облачность - указаны через наклонную черту общая и нижняя облачность в баллах и высота нижней границы облаков в метрах; квадратными скобками обозначены формы облаков: Ci - перистые, Cs - перисто-слоистые, Cc - перисто-кучевые, Ac - высококучевые, As - высокослоистые, Sc - слоисто-кучевые, Ns - слоисто-дождевые, Cu - кучевые, Cb - кучево-дождевые. Подробнее классификацию облаков см. в Атласе облаков (PDF).
T - Температура воздуха - температура, измеренная на высоте 2 м над землей.
Td - Температура точки росы - температура, при понижении до которой содержащийся в воздухе водяной пар достигнет насыщения.
f - Относительная влажность воздуха - влажноcть воздуха, измеренная на высоте 2 м над землей.
Te - Эффективная температура - температура, которую ощущает одетый по сезону человек в тени. Характеристика душности погоды. При расчете учитывается влияние влажности воздуха и скорости ветра на теплоощущения человека.
Tes - Эффективная температура на солнце - температура, которую ощущает человек, с поправкой на солнечный нагрев. Характеристика знойности погоды. Зависит от высоты солнца над горизонтом, облачности и скорости ветра. Ночью, в пасмурную погоду, а также при ветре 12 м/с и более поправка равна нулю.
P - Атмосферное давление - приведенное к уровню моря атмосферное давление.
Po - Атмосферное давление - измеренное на уровне метеостанции атмосферное давление.
Tmin - Минимальная температура - минимум температуры воздуха на высоте 2 м над землей.
Tmax - Максимальная температура - максимум температуры воздуха на высоте 2 м над землей.
R - Количество осадков - Количество выпавших осадков за период времени, мм. При наведении курсора мыши на число - период времени, за который выпало указанное количество осадков.
R24 - Количество осадков - Количество выпавших осадков за 24 часа, мм.
S - Снежный покров - Высота снежного покрова, см. При наведении курсора мыши на число - состояние снежного покрова и степень покрытия местности в баллах.